1483927200.77,54535,3.94,72506.3,-19.29,-19.17,-18.99,0,*66
1483927202.03,54536,3.94,72510.0,-19.29,-19.13,-18.93,0,*6B
1483927203.27,54537,3.94,72518.3,-19.25,-18.93,-18.79,0,*6B
1483927204.49,54538,3.94,72538.0,-19.29,-18.99,-18.83,0,*67
1483927205.7,54539,3.94,72552.0,-19.29,-18.99,-18.83,0,*66
1483927206.95,54540,3.94,72520.5,-19.25,-18.93,-18.69,0,*6A
1483927208.18,54541,3.94,72516.8,-19.25,-18.83,-18.65,0,*66
1483927209.4,54542,3.94,72522.0,-19.29,-18.83,-18.69,0,*65
1483927210.62,54543,3.94,72526.8,-19.25,-18.83,-18.69,0,*68
1483927211.84,54544,3.94,72504.3,-19.29,-18.73,-18.45,0,*62
1483927213.09,54545,3.94,72512.0,-19.29,-18.69,-18.55,0,*69
1483927214.31,54546,3.94,72512.8,-19.29,-18.69,-18.65,0,*69
1483927215.58,54547,3.94,72516.3,-19.25,-18.55,-18.55,0,*68
1483927216.82,54548,3.94,72510.3,-19.25,-18.65,-18.55,0,*64
1483927218.07,54549,4.0,72524.8,-19.25,-18.65,-18.55,0,*65
1483927219.29,54550,4.0,72516.0,-19.25,-18.79,-18.69,0,*6F
1483927220.51,54551,3.94,72514.5,-19.25,-18.83,-18.79,0,*6A
1483927221.72,54552,3.94,72514.8,-19.25,-18.79,-18.79,0,*6C
1483927222.94,54553,3.94,72516.5,-19.29,-18.83,-18.83,0,*61
1483927224.16,54554,4.0,72508.5,-19.25,-18.83,-18.83,0,*6A
1483927225.37,54555,4.0,72502.3,-19.25,-18.79,-18.83,0,*6E
1483927226.64,54556,3.94,72498.8,-19.29,-18.89,-18.89,0,*64
1483927227.88,54557,3.94,72490.8,-19.25,-18.83,-18.93,0,*68
1483927229.18,54558,4.0,72492.0,-19.23,-18.93,-18.93,0,*60
1483927230.44,54559,3.94,72484.8,-19.23,-18.93,-19.07,0,*6D
1483927231.71,54560,3.94,72486.8,-19.23,-18.93,-18.99,0,*61
1483927232.93,54561,4.0,72488.0,-19.25,-18.99,-19.03,0,*6E
1483927234.16,54562,3.94,72488.5,-19.25,-19.13,-19.13,0,*6F
1483927235.38,54563,4.0,72494.3,-19.25,-19.13,-19.07,0,*6B
1483927236.6,54564,3.94,72486.3,-19.25,-18.79,-18.83,0,*6C
1483927237.82,54565,3.94,72478.3,-19.25,-19.07,-19.13,0,*6D
1483927239.05,54566,3.94,72482.3,-19.25,-19.13,-19.13,0,*6B
1483927240.3,54567,3.94,72480.0,-19.29,-19.17,-19.27,0,*65
1483927241.55,54568,3.94,72476.8,-19.25,-19.13,-19.23,0,*66
1483927242.81,54569,3.94,72478.8,-19.25,-19.13,-19.23,0,*67
1483927244.06,54570,3.94,72476.0,-19.25,-19.13,-19.23,0,*6F
1483927245.33,54571,3.94,72484.5,-19.25,-19.23,-19.27,0,*69
1483927246.61,54572,3.94,72484.8,-19.25,-19.23,-19.27,0,*6A
1483927247.9,54573,3.94,72488.3,-19.23,-19.23,-19.23,0,*69
1483927249.18,54574,4.0,72484.5,-19.23,-19.13,-19.23,0,*6D
1483927250.45,54575,3.94,72484.3,-19.23,-19.13,-19.27,0,*68
1483927251.72,54576,3.94,72500.8,-19.23,-19.07,-19.23,0,*6A
1483927252.99,54577,3.94,72486.8,-19.23,-19.07,-19.23,0,*6B
1483927254.25,54578,3.94,72498.5,-19.23,-19.07,-19.23,0,*64
1483927255.52,54579,3.94,72492.3,-19.23,-19.07,-19.23,0,*65
1483927256.79,54580,3.94,72488.5,-19.23,-19.13,-19.23,0,*66
1483927258.06,54581,3.94,72472.5,-19.23,-19.07,-19.23,0,*62
1483927259.31,54582,3.94,72476.5,-19.23,-18.99,-19.13,0,*64
1483927260.55,54583,3.94,72472.0,-19.23,-18.99,-19.13,0,*65
1483927261.8,54584,4.0,72470.8,-19.23,-18.99,-19.13,0,*62
1483927263.06,54585,3.94,72472.5,-19.23,-19.13,-19.13,0,*60
1483927264.29,54586,3.94,72474.3,-19.23,-19.07,-19.07,0,*63
1483927265.54,54587,3.94,72470.8,-19.23,-19.07,-19.13,0,*67
1483927266.81,54588,3.94,72468.0,-19.23,-19.13,-19.23,0,*6E
1483927268.08,54589,3.94,72488.5,-19.23,-19.13,-19.23,0,*6F
1483927269.35,54590,3.94,72492.5,-19.23,-19.07,-19.23,0,*62
1483927270.62,54591,3.94,72522.8,-19.23,-19.07,-19.23,0,*63
1483927271.86,54592,3.94,72534.5,-19.23,-19.07,-19.13,0,*63
1483927273.11,54593,3.94,72484.0,-19.23,-18.99,-19.13,0,*64
1483927274.35,54594,4.0,72476.0,-19.23,-18.99,-19.07,0,*66
1483927275.58,54595,3.94,72476.5,-19.23,-19.07,-19.07,0,*61
1483927276.82,54596,3.94,72484.5,-19.23,-19.07,-19.07,0,*62
1483927278.05,54597,3.94,72490.3,-19.23,-19.07,-19.07,0,*63
1483927279.3,54598,3.94,72476.0,-19.23,-19.07,-19.17,0,*6D
1483927280.58,54599,3.94,72470.0,-19.23,-19.13,-19.23,0,*6E
1483927281.82,54600,3.94,72478.3,-19.23,-19.07,-19.17,0,*6F
1483927283.07,54601,3.94,72472.3,-19.23,-19.07,-19.17,0,*6E
1483927284.37,54602,3.94,72534.0,-19.23,-19.27,-19.23,0,*68
1483927285.62,54603,3.94,72510.5,-19.23,-19.17,-19.17,0,*6D
1483927286.86,54604,3.94,72540.3,-19.23,-19.03,-19.03,0,*6A
1483927288.09,54605,3.94,72506.0,-19.23,-18.99,-19.07,0,*6D
1483927289.33,54606,3.94,72484.0,-19.23,-18.99,-18.99,0,*68
1483927290.6,54607,3.94,72474.0,-19.23,-18.93,-18.99,0,*63
1483927291.9,54608,3.94,72460.8,-19.23,-18.93,-18.93,0,*66
1483927293.15,54609,3.94,72458.3,-19.23,-19.13,-19.13,0,*67
1483927294.37,54610,3.94,72452.5,-19.21,-19.07,-19.17,0,*6C
1483927295.64,54611,3.94,72454.8,-19.23,-19.13,-19.23,0,*6D
1483927296.89,54612,3.94,72456.0,-19.23,-19.07,-19.17,0,*6C
1483927298.1,54613,3.94,72404.5,-19.21,-19.03,-19.07,0,*6A
1483927299.31,54614,3.94,72402.8,-19.21,-19.07,-19.07,0,*69
1483927300.55,54615,3.94,72434.5,-19.23,-19.17,-19.07,0,*6B
1483927301.78,54616,3.94,72468.3,-19.23,-19.07,-19.07,0,*69
1483927303.02,54617,3.94,72462.3,-19.23,-19.17,-19.07,0,*69
1483927304.26,54618,4.0,72440.8,-19.23,-19.07,-19.03,0,*63
1483927305.5,54619,4.0,72430.5,-19.23,-19.07,-19.07,0,*66
1483927306.74,54620,4.0,72456.5,-19.23,-19.07,-19.07,0,*6C
1483927307.95,54621,3.94,72432.5,-19.21,-19.07,-19.07,0,*6F
1483927309.18,54622,4.0,72442.8,-19.23,-19.07,-19.07,0,*6E
1483927310.43,54623,3.94,72458.5,-19.23,-19.17,-19.17,0,*6F
1483927311.67,54624,3.94,72472.8,-19.19,-19.17,-19.07,0,*60
1483927312.88,54625,3.94,72486.8,-19.21,-19.07,-19.03,0,*6F
1483927314.09,54626,3.94,72490.3,-19.21,-19.07,-19.07,0,*68
1483927315.31,54627,4.0,72486.3,-19.21,-19.07,-19.03,0,*6D
1483927316.54,54628,3.94,72502.8,-19.19,-19.03,-19.03,0,*6D
1483927317.75,54629,4.0,72506.3,-19.21,-19.07,-19.07,0,*67
1483927318.96,54630,3.94,72488.5,-19.21,-19.07,-19.03,0,*6B
1483927320.18,54631,3.94,72500.5,-19.21,-19.07,-19.03,0,*6A
1483927321.42,54632,3.94,72496.3,-19.21,-19.03,-18.93,0,*65
1483927322.68,54633,3.94,72490.3,-19.19,-19.03,-18.93,0,*6F
1483927323.92,54634,3.94,72494.5,-19.21,-19.03,-18.89,0,*68
1483927325.16,54635,3.94,72484.8,-19.21,-19.03,-18.93,0,*62
1483927326.43,54636,3.94,72480.3,-19.19,-19.07,-18.93,0,*6E
1483927327.69,54637,3.94,72486.3,-19.19,-19.07,-18.89,0,*64
1483927328.96,54638,4.0,72490.8,-19.21,-18.93,-18.93,0,*67
1483927330.25,54639,4.0,72486.3,-19.19,-18.93,-18.89,0,*66
1483927331.53,54640,3.94,72518.5,-19.19,-18.89,-18.89,0,*63
1483927332.82,54641,3.94,72522.0,-19.19,-18.93,-18.89,0,*69
1483927334.07,54642,3.94,72498.3,-19.21,-19.07,-18.93,0,*66
1483927335.33,54643,3.94,72476.5,-19.21,-18.93,-18.89,0,*60
1483927336.63,54644,3.94,72466.8,-19.19,-18.93,-18.93,0,*67
1483927337.87,54645,4.0,72470.0,-19.19,-19.07,-19.03,0,*62
1483927339.11,54646,3.94,72460.3,-19.21,-18.93,-18.79,0,*6A
1483927340.37,54647,3.94,72460.0,-19.19,-18.93,-19.03,0,*6C
1483927341.6,54648,4.0,72462.5,-19.19,-19.03,-19.03,0,*6B
1483927342.87,54649,4.0,72460.3,-19.19,-19.03,-18.93,0,*62
1483927344.1,54650,3.94,72466.8,-19.19,-19.07,-19.07,0,*62
1483927345.34,54651,3.94,72466.3,-19.21,-19.23,-19.07,0,*6E
1483927346.58,54652,3.94,72488.0,-19.21,-19.27,-19.07,0,*69
1483927347.85,54653,3.94,72498.0,-19.19,-19.23,-19.07,0,*67
1483927349.08,54654,3.94,72502.8,-19.19,-19.17,-19.07,0,*67
1483927350.32,54655,4.0,72504.5,-19.19,-19.17,-19.07,0,*66
1483927351.56,54656,3.94,72506.0,-19.19,-19.17,-19.07,0,*65
1483927352.81,54657,4.0,72520.5,-19.19,-19.17,-19.17,0,*65
1483927354.05,54658,3.94,72540.3,-19.19,-19.07,-19.03,0,*6E
1483927355.28,54659,4.0,72538.8,-19.19,-19.03,-19.07,0,*6F
1483927356.51,54660,4.0,72542.3,-19.19,-19.07,-19.07,0,*61
1483927357.72,54661,3.94,72550.8,-19.21,-19.07,-19.03,0,*6F
1483927358.96,54662,4.0,72540.3,-19.19,-19.07,-19.07,0,*63
1483927360.19,54663,3.94,72524.8,-19.19,-19.03,-19.03,0,*62
1483927361.45,54664,4.0,72522.0,-19.19,-19.03,-18.89,0,*66
1483927362.69,54665,3.94,72510.5,-19.15,-18.83,-18.69,0,*6C
1483927363.93,54666,3.94,72498.3,-19.21,-18.89,-18.73,0,*69
1483927365.2,54667,3.94,72494.5,-19.19,-18.93,-19.03,0,*6E
1483927366.43,54668,3.94,72500.0,-19.19,-19.03,-19.03,0,*69
1483927367.67,54669,3.94,72492.3,-19.19,-19.07,-19.07,0,*68
1483927368.9,54670,3.94,72516.5,-19.15,-19.03,-19.03,0,*6C
1483927370.14,54671,4.0,72488.0,-19.15,-19.13,-19.03,0,*6C
1483927371.39,54672,4.0,72516.8,-19.15,-19.17,-19.13,0,*6A
1483927372.64,54673,3.94,72426.0,-19.15,-19.13,-19.13,0,*6F
1483927373.91,54674,4.0,72554.8,-19.15,-19.17,-19.23,0,*6F
1483927375.14,54675,3.94,72436.8,-19.15,-19.03,-18.99,0,*6B
1483927376.38,54676,4.0,72464.0,-19.19,-19.07,-19.07,0,*66
1483927377.67,54677,3.94,72468.0,-19.19,-19.23,-19.23,0,*67
1483927378.97,54678,3.94,72486.5,-19.19,-19.27,-19.27,0,*68
1483927380.22,54679,3.94,72426.0,-19.19,-19.17,-19.17,0,*69
1483927381.47,54680,3.94,72450.5,-19.19,-19.17,-19.17,0,*6F
1483927382.77,54681,4.0,72466.0,-19.19,-19.27,-19.23,0,*6A
1483927384.01,54682,3.94,72468.5,-19.19,-19.17,-19.07,0,*6C
1483927385.22,54683,3.94,72462.8,-19.21,-19.07,-19.03,0,*63
1483927386.47,54684,3.94,72482.0,-19.19,-19.17,-19.17,0,*6B
1483927387.77,54685,3.94,72496.8,-19.19,-19.27,-19.27,0,*6A
1483927389.04,54686,4.0,72504.5,-19.19,-19.41,-19.37,0,*68
1483927390.29,54687,3.94,72514.0,-19.19,-19.37,-19.37,0,*68
1483927391.53,54688,3.94,72514.5,-19.15,-19.37,-19.51,0,*6B
1483927392.83,54689,3.94,72544.3,-19.19,-19.57,-19.65,0,*67
1483927394.1,54690,3.94,72514.8,-19.19,-19.41,-19.71,0,*6D
1483927395.37,54691,3.94,72504.0,-19.19,-19.57,-19.71,0,*6B
1483927396.61,54692,3.94,72518.5,-19.19,-19.37,-19.51,0,*6C
1483927397.86,54693,3.94,72526.3,-19.19,-19.37,-19.51,0,*6D
1483927399.12,54694,3.94,72486.0,-19.19,-18.93,-19.07,0,*66
1483927400.42,54695,3.94,72452.3,-19.19,-19.27,-19.41,0,*6B
1483927401.7,54696,4.0,72464.0,-19.19,-19.37,-19.57,0,*6E
1483927402.98,54697,4.0,72466.8,-19.19,-19.27,-19.37,0,*68
1483927404.26,54698,4.0,72448.0,-19.19,-19.27,-19.37,0,*67
1483927405.57,54699,3.94,72440.5,-19.19,-19.27,-19.31,0,*60
1483927406.81,54700,4.0,72504.5,-19.15,-19.37,-19.47,0,*6D
1483927408.06,54701,3.94,72422.5,-19.15,-19.37,-19.51,0,*6B
1483927409.3,54702,3.94,72520.5,-19.15,-19.47,-19.47,0,*68
1483927410.54,54703,4.0,72452.5,-19.15,-19.47,-19.51,0,*6E
1483927411.78,54704,4.0,72494.3,-19.15,-19.37,-19.47,0,*69
1483927413.08,54705,4.0,72488.0,-19.15,-19.31,-19.31,0,*6F
1483927414.37,54706,3.94,72492.0,-19.15,-19.31,-19.31,0,*6C
1483927415.67,54707,3.94,72472.5,-19.15,-19.23,-19.31,0,*6E
1483927416.94,54708,3.94,72450.5,-19.15,-19.23,-19.37,0,*67
1483927418.21,54709,3.94,72452.0,-19.15,-19.23,-19.37,0,*66
1483927419.5,54710,3.94,72444.3,-19.15,-19.23,-19.31,0,*68
1483927420.78,54711,3.94,72456.8,-19.15,-19.13,-19.23,0,*69
1483927422.08,54712,3.94,72454.5,-19.19,-19.27,-19.27,0,*65
1483927423.33,54713,3.94,72474.3,-19.15,-19.13,-19.17,0,*6C
1483927424.54,54714,4.0,72466.8,-19.13,-19.07,-19.07,0,*69
1483927425.79,54715,3.94,72448.0,-19.15,-19.13,-19.13,0,*6E
1483927427.04,54716,3.94,72474.3,-19.13,-19.17,-19.27,0,*68
1483927428.33,54717,3.94,72472.5,-19.15,-19.23,-19.31,0,*6F
1483927429.63,54718,3.94,72436.8,-19.15,-19.23,-19.31,0,*60
1483927430.9,54719,3.94,72418.3,-19.15,-19.31,-19.47,0,*63
1483927432.14,54720,4.0,72472.0,-19.15,-19.37,-19.37,0,*68
1483927433.44,54721,3.94,72462.8,-19.15,-19.31,-19.31,0,*69
1483927434.71,54722,4.0,72444.3,-19.19,-19.17,-19.27,0,*65
1483927436.01,54723,3.94,72426.3,-19.19,-19.23,-19.27,0,*63
1483927437.31,54724,3.94,72440.0,-19.19,-19.27,-19.27,0,*60
1483927438.6,54725,3.94,72438.5,-19.15,-19.23,-19.23,0,*6D
1483927439.83,54726,4.0,72444.8,-19.13,-19.13,-19.17,0,*6C
1483927441.11,54727,3.94,72484.5,-19.21,-19.27,-19.41,0,*68
1483927442.39,54728,4.0,72442.3,-19.19,-19.27,-19.37,0,*6D
1483927443.67,54729,3.94,72468.5,-19.19,-19.27,-19.37,0,*6C
1483927444.97,54730,4.0,72452.8,-19.19,-19.27,-19.23,0,*61
1483927446.27,54731,3.94,72448.8,-19.19,-19.27,-19.23,0,*60
1483927447.56,54732,3.94,72462.8,-19.19,-19.23,-19.27,0,*63
1483927448.84,54733,3.94,72470.3,-19.21,-19.27,-19.27,0,*6D
1483927450.15,54734,4.0,72484.8,-19.19,-19.27,-19.27,0,*61
1483927451.42,54735,3.94,72486.3,-19.21,-19.27,-19.23,0,*6F
1483927452.72,54736,3.94,72464.5,-19.19,-19.27,-19.27,0,*63
1483927454.02,54737,3.94,72476.5,-19.19,-19.41,-19.27,0,*62
1483927455.28,54738,3.94,72490.5,-19.19,-19.37,-19.23,0,*68
1483927456.53,54739,3.94,72480.3,-19.19,-19.37,-19.17,0,*6E
1483927457.81,54740,3.94,72488.0,-19.19,-19.27,-19.17,0,*61
1483927459.07,54741,3.94,72502.3,-19.21,-19.27,-19.17,0,*6B
1483927460.37,54742,3.94,72482.5,-19.19,-19.27,-19.23,0,*64
1483927461.66,54743,4.0,72522.8,-19.19,-19.41,-19.27,0,*61
1483927462.95,54744,3.94,72514.5,-19.19,-19.41,-19.27,0,*66
1483927464.19,54745,4.0,72488.3,-19.21,-19.37,-19.23,0,*69
1483927465.47,54746,3.94,72476.8,-19.19,-19.37,-19.27,0,*65
1483927466.73,54747,3.94,72496.0,-19.21,-19.41,-19.23,0,*6A
1483927468.01,54748,3.94,72494.0,-19.19,-19.27,-19.17,0,*69
1483927469.26,54749,4.0,72480.5,-19.21,-19.27,-19.17,0,*63
1483927470.49,54750,4.0,72478.0,-19.21,-19.17,-19.17,0,*68
1483927471.76,54751,3.94,72460.5,-19.19,-19.23,-19.17,0,*65
1483927473.0,54752,3.94,72472.3,-19.19,-19.17,-19.07,0,*60
1483927474.24,54753,4.0,72468.3,-19.19,-19.17,-19.03,0,*65
1483927475.48,54754,3.94,72476.0,-19.19,-19.17,-19.07,0,*66
1483927476.72,54755,3.94,72484.0,-19.19,-19.17,-19.07,0,*67
1483927477.95,54756,4.0,72474.5,-19.19,-19.17,-19.07,0,*64
1483927479.22,54757,3.94,72460.0,-19.19,-19.23,-19.07,0,*62
1483927480.48,54758,4.0,72490.0,-19.19,-19.23,-19.07,0,*6D
1483927481.71,54759,4.0,72498.8,-19.19,-19.17,-19.07,0,*6B
1483927482.99,54760,3.94,72510.8,-19.19,-19.27,-19.17,0,*63
1483927484.26,54761,4.0,72484.8,-19.19,-19.17,-18.93,0,*6C
1483927485.53,54762,4.0,72486.5,-19.19,-19.03,-18.93,0,*6A
1483927486.77,54763,3.94,72490.5,-19.15,-18.69,-18.69,0,*6F
1483927488.01,54764,3.94,72498.0,-19.15,-18.99,-18.83,0,*63
1483927489.23,54765,3.94,72514.3,-19.13,-18.69,-18.65,0,*63
1483927490.51,54766,3.94,72518.5,-19.15,-18.89,-18.89,0,*6A
1483927491.78,54767,4.0,72504.3,-19.13,-18.93,-18.93,0,*6D
1483927493.02,54768,3.94,72498.3,-19.15,-19.03,-19.03,0,*64
1483927494.23,54769,3.94,72486.3,-19.13,-18.99,-18.99,0,*63
1483927495.44,54770,3.94,72476.3,-19.13,-18.99,-18.99,0,*6B
1483927496.66,54771,3.94,72468.0,-19.13,-19.07,-19.13,0,*6F
1483927497.89,54772,3.94,72466.0,-19.13,-19.13,-19.13,0,*69
1483927499.13,54773,3.94,72474.0,-19.15,-19.13,-19.07,0,*6B
1483927500.38,54774,4.0,72482.8,-19.15,-19.13,-19.13,0,*69
1483927501.6,54775,4.0,72482.3,-19.13,-19.07,-19.13,0,*6B
1483927502.81,54776,3.94,72492.5,-19.13,-19.07,-19.07,0,*6D
1483927504.04,54777,3.94,72490.5,-19.13,-19.13,-19.17,0,*68
1483927505.25,54778,3.94,72484.5,-19.13,-19.07,-19.07,0,*63
1483927506.46,54779,3.94,72476.8,-19.13,-19.07,-19.07,0,*62
1483927507.71,54780,3.94,72472.5,-19.11,-19.13,-19.17,0,*62
1483927508.95,54781,3.94,72472.3,-19.11,-19.07,-19.07,0,*67
1483927510.2,54782,4.0,72468.5,-19.11,-19.13,-19.17,0,*60
1483927511.42,54783,3.94,72464.8,-19.13,-19.17,-19.17,0,*67
1483927512.67,54784,3.94,72490.5,-19.13,-19.17,-19.27,0,*63
1483927513.95,54785,3.94,72496.3,-19.11,-19.17,-19.31,0,*67
1483927515.22,54786,3.94,72504.0,-19.15,-19.17,-19.31,0,*60
1483927516.47,54787,4.0,72508.0,-19.13,-19.17,-19.31,0,*67
1483927517.71,54788,3.94,72518.3,-19.13,-19.17,-19.31,0,*68
1483927518.99,54789,3.94,72516.3,-19.13,-19.27,-19.31,0,*6A
1483927520.27,54790,3.94,72522.5,-19.13,-19.27,-19.31,0,*62
1483927521.55,54791,3.94,72516.3,-19.13,-19.27,-19.31,0,*63
1483927522.85,54792,3.94,72516.0,-19.11,-19.27,-19.31,0,*62
1483927524.16,54793,3.94,72522.3,-19.11,-19.27,-19.31,0,*63
1483927525.44,54794,3.94,72534.0,-19.13,-19.27,-19.27,0,*61
1483927526.69,54795,4.0,72514.5,-19.13,-19.13,-19.27,0,*67
1483927527.91,54796,3.94,72528.3,-19.13,-19.37,-19.37,0,*63
1483927529.19,54797,3.94,72494.0,-19.13,-19.27,-19.27,0,*62
1483927530.47,54798,3.94,72498.3,-19.13,-19.27,-19.27,0,*6D
1483927531.74,54799,4.0,72492.8,-19.13,-19.31,-19.31,0,*6C
1483927533.04,54800,4.0,72496.8,-19.15,-19.31,-19.23,0,*66
1483927534.29,54801,3.94,72508.0,-19.13,-19.27,-19.17,0,*61
1483927535.58,54802,3.94,72512.5,-19.15,-19.23,-19.23,0,*67
1483927536.83,54803,3.94,72508.3,-19.11,-19.17,-19.17,0,*62
1483927538.13,54804,3.94,72526.0,-19.15,-19.31,-19.31,0,*61
1483927539.38,54805,3.94,72500.3,-19.13,-19.17,-19.27,0,*65
1483927540.66,54806,3.94,72498.0,-19.13,-19.27,-19.27,0,*65
1483927541.93,54807,3.94,72504.0,-19.13,-19.27,-19.27,0,*64
1483927543.23,54808,4.0,72504.3,-19.15,-19.31,-19.31,0,*6D
1483927544.48,54809,3.94,72496.3,-19.13,-19.17,-19.27,0,*69
1483927545.77,54810,3.94,72474.8,-19.15,-19.23,-19.23,0,*64
1483927546.99,54811,3.94,72476.8,-19.13,-19.17,-19.17,0,*63
1483927548.26,54812,3.94,72486.8,-19.15,-19.37,-19.23,0,*63
1483927549.53,54813,3.94,72520.5,-19.15,-19.47,-19.31,0,*66
1483927550.8,54814,3.94,72516.0,-19.15,-19.31,-19.17,0,*64
1483927552.07,54815,3.94,72490.8,-19.15,-19.31,-19.13,0,*61
1483927553.34,54816,4.0,72486.3,-19.15,-19.31,-19.17,0,*66
1483927554.58,54817,3.94,72478.0,-19.15,-19.17,-18.99,0,*64
1483927555.82,54818,3.94,72470.3,-19.15,-19.17,-18.83,0,*60
1483927557.04,54819,3.94,72470.5,-19.13,-19.07,-18.79,0,*63
1483927558.28,54820,3.94,72464.8,-19.15,-19.17,-18.99,0,*60
1483927559.57,54821,3.94,72470.5,-19.15,-19.23,-18.89,0,*67
1483927560.81,54822,4.0,72462.3,-19.15,-19.13,-18.99,0,*66
1483927562.08,54823,3.94,72448.3,-19.15,-19.13,-18.89,0,*66
1483927563.35,54824,4.0,72452.0,-19.15,-19.23,-19.13,0,*60
1483927564.62,54825,4.0,72442.3,-19.15,-19.23,-19.13,0,*61
1483927565.84,54826,4.0,72450.5,-19.13,-19.13,-18.99,0,*64
1483927567.08,54827,3.94,72472.8,-19.15,-19.17,-19.03,0,*65
1483927568.34,54828,3.94,72458.3,-19.15,-19.23,-19.03,0,*6D
1483927569.59,54829,4.0,72474.0,-19.15,-19.13,-18.99,0,*6D
1483927570.83,54830,4.0,72452.3,-19.15,-19.17,-19.03,0,*63
1483927572.08,54831,4.0,72480.8,-19.15,-19.17,-19.13,0,*63
1483927573.34,54832,3.94,72502.0,-19.15,-19.23,-19.03,0,*66
1483927574.6,54833,3.94,72466.8,-19.15,-19.23,-19.03,0,*67
1483927575.87,54834,4.0,72526.5,-19.15,-19.23,-19.03,0,*60
1483927577.13,54835,3.94,72514.3,-19.15,-19.23,-19.03,0,*61
1483927578.39,54836,3.94,72516.0,-19.15,-19.23,-19.03,0,*62
1483927579.61,54837,4.0,72522.0,-19.13,-19.17,-18.99,0,*60
1483927580.85,54838,4.0,72502.0,-19.15,-19.17,-18.99,0,*69
1483927582.11,54839,4.0,72486.0,-19.15,-19.23,-19.03,0,*6D
1483927583.38,54840,3.94,72486.0,-19.15,-19.23,-18.99,0,*61
1483927584.65,54841,4.0,72470.0,-19.15,-19.23,-19.13,0,*63
1483927585.9,54842,3.94,72482.0,-19.13,-19.27,-19.17,0,*66
1483927587.17,54843,3.94,72416.3,-19.15,-19.37,-19.23,0,*67
1483927588.44,54844,3.94,72504.3,-19.13,-19.41,-19.27,0,*63
1483927589.71,54845,4.0,72510.0,-19.15,-19.51,-19.41,0,*65
1483927590.95,54846,3.94,72488.0,-19.15,-19.47,-19.37,0,*60
1483927592.2,54847,3.94,72476.8,-19.15,-19.37,-19.37,0,*66
1483927593.44,54848,4.0,72488.0,-19.15,-19.37,-19.47,0,*6E
1483927594.69,54849,3.94,72428.5,-19.15,-19.37,-19.47,0,*6F
1483927595.99,54850,4.0,72450.3,-19.15,-19.61,-19.61,0,*60
1483927597.23,54851,3.94,72464.5,-19.13,-19.65,-19.51,0,*60
1483927598.5,54852,3.94,72480.8,-19.15,-19.47,-19.61,0,*66
1483927599.77,54853,3.94,72518.3,-19.15,-19.51,-19.61,0,*60
1483927601.04,54854,4.0,72496.3,-19.15,-19.51,-19.65,0,*63
1483927602.32,54855,4.0,72526.5,-19.19,-19.51,-19.57,0,*6F
1483927603.59,54856,4.0,72548.8,-19.21,-19.41,-19.57,0,*66
1483927604.89,54857,4.0,72524.8,-19.19,-19.41,-19.57,0,*6C
1483927606.16,54858,4.0,72522.5,-19.19,-19.41,-19.37,0,*65
1483927607.41,54859,4.0,72546.8,-19.19,-19.37,-19.51,0,*65
1483927608.69,54860,4.0,72562.8,-19.19,-19.27,-19.37,0,*6E
1483927609.98,54861,4.0,72504.0,-19.15,-19.23,-19.23,0,*62
1483927611.26,54862,4.0,72524.5,-19.21,-19.27,-19.27,0,*66
1483927612.5,54863,4.0,72562.3,-19.19,-19.17,-19.17,0,*6C
1483927613.74,54864,3.94,72526.0,-19.19,-19.03,-19.03,0,*6B
1483927614.97,54865,4.0,72546.0,-19.19,-19.03,-19.07,0,*6E
1483927616.26,54866,4.0,72546.5,-19.19,-18.89,-18.93,0,*62
1483927617.54,54867,4.0,72544.5,-19.19,-18.89,-18.89,0,*68
1483927618.83,54868,3.94,72514.0,-19.19,-18.89,-18.93,0,*6C
1483927620.09,54869,3.94,72536.3,-19.15,-18.99,-18.89,0,*6B
1483927621.33,54870,4.0,72564.3,-19.15,-18.83,-18.83,0,*62
1483927622.57,54871,3.94,72542.8,-19.15,-18.69,-18.69,0,*63
1483927623.83,54872,4.0,72534.8,-19.19,-18.73,-18.59,0,*64
1483927625.11,54873,4.0,72526.0,-19.15,-18.59,-18.55,0,*6D
1483927626.37,54874,4.0,72474.5,-19.15,-18.89,-18.83,0,*6C
1483927627.63,54875,4.0,72468.0,-19.15,-19.03,-18.89,0,*64
1483927628.86,54876,4.0,72466.5,-19.15,-19.03,-18.99,0,*66
1483927630.11,54877,3.94,72468.0,-19.13,-19.07,-18.93,0,*6F
1483927631.34,54878,3.94,72468.0,-19.15,-18.99,-19.03,0,*68
1483927632.59,54879,3.94,72460.8,-19.15,-19.13,-18.99,0,*68
1483927633.83,54880,3.94,72464.5,-19.15,-19.17,-19.03,0,*68
1483927635.07,54881,3.94,72454.0,-19.15,-19.13,-19.03,0,*6D
1483927636.33,54882,3.94,72448.8,-19.15,-19.23,-19.03,0,*6D
1483927637.57,54883,4.0,72464.5,-19.15,-19.17,-19.03,0,*6B
1483927638.81,54884,4.0,72482.3,-19.15,-19.17,-19.03,0,*6C
1483927640.08,54885,3.94,72486.8,-19.15,-19.23,-19.03,0,*6A
1483927641.32,54886,3.94,72486.0,-19.15,-19.17,-19.03,0,*6E
1483927642.55,54887,3.94,72472.0,-19.13,-19.31,-19.07,0,*69
1483927643.83,54888,4.0,72510.8,-19.15,-19.23,-19.13,0,*66
1483927645.07,54889,4.0,72492.3,-19.15,-19.17,-19.13,0,*60
1483927646.34,54890,3.94,72502.0,-19.15,-19.23,-19.13,0,*6F
1483927647.59,54891,4.0,72470.5,-19.15,-19.17,-19.13,0,*69
1483927648.84,54892,4.0,72500.0,-19.15,-19.17,-19.13,0,*6A
1483927650.1,54893,4.0,72504.5,-19.19,-19.23,-19.07,0,*65
1483927651.34,54894,4.0,72510.5,-19.13,-19.07,-18.93,0,*62
1483927652.56,54895,4.0,72498.3,-19.13,-19.07,-18.99,0,*69
1483927653.8,54896,4.0,72500.3,-19.15,-19.17,-19.03,0,*6F
1483927655.04,54897,3.94,72498.0,-19.15,-19.13,-18.99,0,*68
1483927656.28,54898,4.0,72504.5,-19.15,-19.17,-19.03,0,*61
1483927657.52,54899,4.0,72494.5,-19.15,-19.13,-18.99,0,*66
1483927658.77,54900,4.0,72518.3,-19.15,-19.13,-19.03,0,*65
1483927660.04,54901,4.0,72508.3,-19.15,-19.13,-18.89,0,*67
1483927661.3,54902,4.0,72456.3,-19.15,-19.13,-18.89,0,*64
1483927662.54,54903,3.94,72446.5,-19.15,-19.03,-18.99,0,*65
1483927663.78,54904,4.0,72486.5,-19.15,-19.13,-19.03,0,*61
1483927665.02,54905,4.0,72482.0,-19.15,-19.13,-18.99,0,*62
1483927666.29,54906,4.0,72490.0,-19.15,-19.13,-18.89,0,*60
1483927667.55,54907,4.0,72474.5,-19.15,-19.03,-18.89,0,*60
1483927668.77,54908,3.94,72454.3,-19.13,-19.07,-18.99,0,*6C
1483927670.01,54909,3.94,72454.5,-19.13,-19.07,-18.93,0,*67
1483927671.25,54910,3.94,72458.3,-19.13,-19.07,-18.93,0,*6F
1483927672.47,54911,4.0,72462.5,-19.13,-19.17,-18.99,0,*65
1483927673.68,54912,4.0,72482.3,-19.13,-19.07,-18.99,0,*67
1483927674.89,54913,4.0,72502.3,-19.13,-19.07,-18.99,0,*66
1483927676.14,54914,3.94,72502.8,-19.15,-19.13,-18.99,0,*62
1483927677.38,54915,3.94,72506.8,-19.15,-19.13,-18.99,0,*63
1483927678.6,54916,4.0,72522.5,-19.13,-19.13,-18.99,0,*66
1483927679.84,54917,3.94,72466.3,-19.15,-19.17,-19.03,0,*67
1483927681.08,54918,4.0,72452.3,-19.15,-19.17,-19.03,0,*68
1483927682.29,54919,4.0,72460.3,-19.13,-19.07,-18.99,0,*6C
1483927683.53,54920,4.0,72458.3,-19.15,-19.13,-19.03,0,*67
1483927684.75,54921,4.0,72486.0,-19.13,-19.07,-18.99,0,*67
1483927685.96,54922,4.0,72488.3,-19.13,-19.17,-18.99,0,*65
1483927687.18,54923,4.0,72490.5,-19.13,-19.17,-18.99,0,*64
1483927688.43,54924,4.0,72472.3,-19.13,-19.27,-18.99,0,*60
1483927689.64,54925,3.94,72496.0,-19.13,-19.17,-19.07,0,*64
1483927690.86,54926,4.0,72488.8,-19.13,-19.17,-19.07,0,*67
1483927692.07,54927,3.94,72498.8,-19.13,-19.17,-19.07,0,*66
1483927693.32,54928,4.0,72500.3,-19.13,-19.27,-19.13,0,*6F
1483927694.58,54929,4.0,72508.3,-19.13,-19.27,-19.17,0,*6A
1483927695.83,54930,3.94,72498.8,-19.13,-19.31,-19.17,0,*65
1483927697.08,54931,3.94,72568.8,-19.13,-19.27,-19.17,0,*63
1483927698.33,54932,3.94,72552.3,-19.13,-19.31,-19.17,0,*67
1483927699.59,54933,3.94,72532.8,-19.13,-19.27,-19.17,0,*61
1483927700.81,54934,3.94,72512.0,-19.13,-19.17,-19.13,0,*61
1483927702.03,54935,3.94,72538.5,-19.13,-19.13,-19.07,0,*61
1483927703.25,54936,3.94,72532.3,-19.13,-19.13,-19.13,0,*67